Houston Hull, TX

11:19 AM CDT on October 14, 2019 (GMT -0500)
Sugar Land Municipal-Hull

Weather History for KSGR - August, 2019

Change the Weather History Date:

Sunday, August 4, 2019

  Actual Average Record
Temperature  
Mean Temperature 84 °F -  
Max Temperature 91 °F 93 °F 102 °F (1951)
Min Temperature 77 °F 73 °F 68 °F (1949)
Cooling Degree Days 18    
Growing Degree Days 34 (Base 50)    
Moisture  
Dew Point 76 °F    
Average Humidity 78    
Maximum Humidity 100    
Minimum Humidity 59    
Precipitation  
Precipitation 0.00 in - - ()
Sea Level Pressure  
Sea Level Pressure 29.94 in    
Wind  
Wind Speed 3 mph (SSE)    
Max Wind Speed 10 mph    
Max Gust Speed -    
Visibility 10 miles    
Events      
Averages and records for this station are not official NWS values.
T = Trace of Precipitation, MM = Missing Value Source: NWS Daily Summary

Daily Weather History Graph

Daily Weather History Graph

Search for Another Location

Airport or City:

Astronomy

Aug. 04, 2019 Rise Set
Actual Time 6:44 AM CDT 8:13 PM CDT
Civil Twilight 6:18 AM CDT 8:38 PM CDT
Nautical Twilight 5:47 AM CDT 9:09 PM CDT
Astronomical Twilight 5:15 AM CDT 9:41 PM CDT
Moon 10:35 AM CDT (8/4) 11:11 PM CDT (8/4)
Length of Visible Light 14h 20m
Length of Day
13h 29m
Waxing Crescent, 18% of the Moon is Illuminated
Aug 4
Waxing Crescent
Aug 7
First Quarter
Aug 15
Full
Aug 23
Last Quarter
Aug 30
New

Hourly Weather History & Observations

Time (CDT) Temp. Heat Index Dew Point Humidity Pressure Visibility Wind Dir Wind Speed Gust Speed Precip Events Conditions
12:53 AM 78.1 °F - 75.9 °F 93% 29.94 in 10.0 mi Calm Calm - N/A   Partly Cloudy
1:53 AM 78.1 °F - 77.0 °F 96% 29.94 in 10.0 mi South 3.5 mph - N/A   Partly Cloudy
2:53 AM 78.1 °F - 77.0 °F 96% 29.93 in 10.0 mi Calm Calm - N/A   Mostly Cloudy
3:53 AM 79.0 °F - 77.0 °F 94% 29.93 in 10.0 mi Calm Calm - N/A   Clear
4:53 AM 79.0 °F - 75.9 °F 90% 29.93 in 10.0 mi SSE 3.5 mph - N/A   Partly Cloudy
5:53 AM 77.0 °F - 77.0 °F 100% 29.94 in 10.0 mi Calm Calm - N/A   Scattered Clouds
6:53 AM 78.1 °F - 77.0 °F 96% 29.94 in 10.0 mi SSE 3.5 mph - N/A   Mostly Cloudy
7:53 AM 80.1 °F 86.4 °F 78.1 °F 94% 29.96 in 10.0 mi Calm Calm - N/A   Mostly Cloudy
8:53 AM 84.0 °F 93.7 °F 77.0 °F 79% 29.97 in 10.0 mi Calm Calm - N/A   Scattered Clouds
9:53 AM 84.9 °F 94.1 °F 75.9 °F 74% 29.98 in 10.0 mi Calm Calm - N/A   Mostly Cloudy
10:53 AM 84.9 °F 95.3 °F 77.0 °F 77% 29.98 in 10.0 mi West 5.8 mph - N/A   Overcast
11:53 AM 90.0 °F 100.2 °F 75.0 °F 61% 29.97 in 10.0 mi NNW 3.5 mph - 0.00 in   Overcast
12:53 PM 87.1 °F 96.3 °F 75.0 °F 67% 29.96 in 10.0 mi Calm Calm - N/A   Overcast
1:53 PM 84.9 °F 94.1 °F 75.9 °F 74% 29.96 in 10.0 mi South 8.1 mph - N/A   Mostly Cloudy
2:53 PM 87.1 °F 96.3 °F 75.0 °F 67% 29.94 in 10.0 mi South 10.4 mph - N/A   Partly Cloudy
3:53 PM 90.0 °F 101.3 °F 75.9 °F 63% 29.92 in 10.0 mi SSW 9.2 mph - N/A   Clear
4:53 PM 90.0 °F 100.2 °F 75.0 °F 61% 29.91 in 10.0 mi ESE 9.2 mph - N/A   Partly Cloudy
5:53 PM 90.0 °F 100.2 °F 75.0 °F 61% 29.90 in 10.0 mi SE 8.1 mph - N/A   Clear
6:53 PM 89.1 °F 97.0 °F 73.0 °F 59% 29.89 in 10.0 mi South 9.2 mph - N/A   Clear
7:53 PM 84.9 °F 90.7 °F 72.0 °F 65% 29.90 in 10.0 mi SSE 8.1 mph - N/A   Clear
8:53 PM 84.9 °F 90.7 °F 72.0 °F 65% 29.91 in 10.0 mi SE 5.8 mph - N/A   Clear
9:53 PM 82.9 °F 89.4 °F 73.9 °F 74% 29.92 in 10.0 mi SE 8.1 mph - N/A   Clear
10:53 PM 82.0 °F 89.4 °F 75.9 °F 82% 29.93 in 10.0 mi SSE 8.1 mph - N/A   Clear
11:53 PM 80.1 °F 85.8 °F 77.0 °F 90% 29.94 in 10.0 mi South 6.9 mph - N/A   Clear